Location: Claremont
(33.9858°S, 18.4575°E)
Time: 10:55:45
(UTC+00:00)

Cosmos 2263 Rocket - Pass Details

Date: 03 March 2021
Orbit: 825 x 847 km, 71.0° (Epoch: 19 April)

Event Time Altitude Azimuth Distance (km) Brightness Sun altitude
Rises 19:54:52 0° 310° (NW) 3,375 5.5 -30.8°
Reaches altitude 10° 19:57:38 10° 299° (WNW) 2,453 4.9 -31.2°
Maximum altitude 20:02:23 28° 241° (WSW) 1,555 4.1 -32.0°
Drops below altitude 10° 20:07:13 10° 183° (S) 2,488 5.0 -32.8°
Sets 20:10:04 0° 171° (S) 3,433 5.7 -33.3°
